TimePST,TemperatureF,Dew PointF,Humidity,Sea Level PressureIn,VisibilityMPH,Wind Direction,Wind SpeedMPH,Gust SpeedMPH,PrecipitationIn,Events,Conditions,WindDirDegrees,DateUTC
12:54 AM,44.1,37.0,76,30.43,10.0,ESE,3.5,-,N/A,,Clear,110,2013-02-28 08:54:00
1:54 AM,43.0,36.0,76,30.42,10.0,East,3.5,-,N/A,,Clear,90,2013-02-28 09:54:00
2:54 AM,42.1,36.0,79,30.42,10.0,Calm,Calm,-,N/A,,Clear,0,2013-02-28 10:54:00
3:54 AM,41.0,37.0,86,30.42,10.0,East,3.5,-,N/A,,Clear,80,2013-02-28 11:54:00
4:27 AM,42.8,39.2,87,30.40,10.0,WSW,3.5,-,N/A,,Scattered Clouds,250,2013-02-28 12:27:00
4:35 AM,46.4,42.8,87,30.39,9.0,SW,4.6,-,N/A,,Mostly Cloudy,230,2013-02-28 12:35:00
4:54 AM,48.0,46.0,93,30.44,6.0,SSW,3.5,-,N/A,,Overcast,210,2013-02-28 12:54:00
5:54 AM,46.0,43.0,89,30.44,6.0,East,5.8,-,N/A,,Overcast,90,2013-02-28 13:54:00
6:05 AM,46.4,42.8,87,30.40,1.0,East,5.8,-,N/A,,Overcast,90,2013-02-28 14:05:00
6:22 AM,46.4,44.6,93,30.41,0.2,Calm,Calm,-,N/A,Fog,Fog,0,2013-02-28 14:22:00
6:35 AM,44.6,44.6,100,30.41,0.5,Calm,Calm,-,N/A,Fog,Fog,0,2013-02-28 14:35:00
6:46 AM,44.6,44.6,100,30.41,0.5,Calm,Calm,-,N/A,Fog,Fog,0,2013-02-28 14:46:00
6:54 AM,45.0,44.1,97,30.46,0.8,Calm,Calm,-,N/A,,Mostly Cloudy,0,2013-02-28 14:54:00
7:01 AM,44.6,44.6,100,30.42,1.0,SW,3.5,-,N/A,,Mist,220,2013-02-28 15:01:00
7:24 AM,46.4,44.6,93,30.43,5.0,SSE,3.5,-,N/A,,Scattered Clouds,160,2013-02-28 15:24:00
7:54 AM,46.0,44.1,93,30.48,10.0,East,3.5,-,N/A,,Clear,80,2013-02-28 15:54:00
8:54 AM,52.0,46.0,80,30.49,10.0,Calm,Calm,-,N/A,,Clear,0,2013-02-28 16:54:00
9:54 AM,55.0,46.9,74,30.49,6.0,WNW,3.5,-,N/A,,Haze,290,2013-02-28 17:54:00
10:54 AM,57.0,48.0,72,30.49,8.0,Variable,3.5,-,N/A,,Clear,0,2013-02-28 18:54:00
11:54 AM,55.9,46.9,72,30.48,8.0,Calm,Calm,-,N/A,,Clear,0,2013-02-28 19:54:00
1:54 PM,54.0,48.9,83,30.45,9.0,WNW,12.7,-,N/A,,Scattered Clouds,290,2013-02-28 21:54:00
2:04 PM,53.6,48.2,82,30.41,6.0,West,11.5,-,N/A,,Mostly Cloudy,280,2013-02-28 22:04:00
2:26 PM,55.4,48.2,77,30.42,10.0,Variable,6.9,-,N/A,,Scattered Clouds,0,2013-02-28 22:26:00
2:54 PM,57.0,48.9,74,30.45,10.0,West,6.9,-,N/A,,Partly Cloudy,270,2013-02-28 22:54:00
3:54 PM,57.9,48.9,72,30.45,10.0,Variable,5.8,-,N/A,,Clear,0,2013-02-28 23:54:00
4:54 PM,55.0,48.9,80,30.45,10.0,WNW,5.8,-,N/A,,Partly Cloudy,290,2013-03-01 00:54:00
5:54 PM,54.0,48.0,80,30.44,10.0,West,4.6,-,N/A,,Partly Cloudy,270,2013-03-01 01:54:00
6:54 PM,53.1,48.0,83,30.44,10.0,SW,4.6,-,N/A,,Clear,220,2013-03-01 02:54:00
7:54 PM,51.1,48.0,89,30.47,10.0,West,5.8,-,N/A,,Clear,260,2013-03-01 03:54:00
8:02 PM,51.8,48.2,88,30.43,10.0,West,6.9,-,N/A,,Scattered Clouds,260,2013-03-01 04:02:00
8:10 PM,51.8,48.2,88,30.43,10.0,West,8.1,-,N/A,,Mostly Cloudy,260,2013-03-01 04:10:00
8:54 PM,50.0,48.9,96,30.48,8.0,Calm,Calm,-,N/A,,Overcast,0,2013-03-01 04:54:00
9:30 PM,50.0,48.2,94,30.44,1.5,NNE,3.5,-,N/A,,Overcast,30,2013-03-01 05:30:00
9:54 PM,48.9,48.0,97,30.48,1.2,Calm,Calm,-,N/A,,Overcast,0,2013-03-01 05:54:00
10:06 PM,48.2,48.2,100,30.43,0.5,East,3.5,-,N/A,Fog,Fog,90,2013-03-01 06:06:00
10:24 PM,48.2,46.4,93,30.43,0.5,East,3.5,-,N/A,Fog,Fog,80,2013-03-01 06:24:00
10:32 PM,48.2,46.4,93,30.43,0.2,East,3.5,-,N/A,Fog,Fog,80,2013-03-01 06:32:00
10:43 PM,48.2,46.4,93,30.43,0.8,Calm,Calm,-,N/A,,Mist,0,2013-03-01 06:43:00
10:49 PM,46.4,46.4,100,30.43,2.0,Calm,Calm,-,N/A,,Mostly Cloudy,0,2013-03-01 06:49:00
10:54 PM,46.9,46.9,100,30.48,9.0,Calm,Calm,-,N/A,,Mostly Cloudy,0,2013-03-01 06:54:00
11:04 PM,46.4,46.4,100,30.43,9.0,WSW,3.5,-,N/A,,Scattered Clouds,250,2013-03-01 07:04:00
11:09 PM,46.4,46.4,100,30.43,1.5,SW,3.5,-,N/A,,Scattered Clouds,230,2013-03-01 07:09:00
11:12 PM,46.4,46.4,100,30.43,0.8,Calm,Calm,-,N/A,,Mist,0,2013-03-01 07:12:00
11:26 PM,46.4,46.4,100,30.43,0.5,Calm,Calm,-,N/A,Fog,Fog,0,2013-03-01 07:26:00
11:39 PM,46.4,46.4,100,30.43,0.2,Calm,Calm,-,N/A,Fog,Fog,0,2013-03-01 07:39:00
11:49 PM,46.4,46.4,100,30.43,0.2,Calm,Calm,-,N/A,Fog,Fog,0,2013-03-01 07:49:00
11:54 PM,46.0,45.0,96,30.47,0.2,Calm,Calm,-,N/A,Fog,Fog,0,2013-03-01 07:54:00